Regional Weather Roundup
Issued by NWS

Home | Current Version | Previous Version | Graphics & Text | Print | Product List | Glossary On
Versions: 1 2 3 4 5 6 7 8 9 10 11 12 13 14 15 16 17 18 19 20 21 22 23 24 25 26 27 28 29 30 31 32 33 34 35 36 37 38 39 40 41 42 43 44 45 46 47 48 49 50
000
ASUS45 KPSR 170510
RWRAZ

ARIZONA REGIONAL HOURLY WEATHER ROUNDUP
NATIONAL WEATHER SERVICE PHOENIX AZ
1000 PM MST TUE SEP 16 2014

NOTE: FAIR INDICATES FEW OR NO CLOUDS BELOW 12,000 FEET WITH NO
SIGNIFICANT WEATHER AND/OR OBSTRUCTIONS TO VISIBILITY.

AZZ001>003-036-170600-
NORTHWEST ARIZONA

CITY           SKY/WX    TMP DP  RH WIND       PRES   REMARKS
BULLHEAD CITY  CLOUDY    82  68  61 SE8       29.83F
KINGMAN        LGT RAIN  71  61  70 N8        30.02S
$$

AZZ004>008-015-016-018-170600-
NORTH CENTRAL ARIZONA

CITY           SKY/WX    TMP DP  RH WIND       PRES   REMARKS
GRAND CANYON   CLOUDY    62  53  72 E5        30.25S
PRESCOTT       CLOUDY    66  57  72 W3        30.15S
FLAGSTAFF      LGT RAIN  59  55  87 E6        30.28S
PAYSON         DRIZZLE   64  63  94 N5        30.17S
PAGE           CLOUDY    77  53  43 SW13G28   30.06R
$$

AZZ009>014-017-170600-
NORTHEAST ARIZONA

CITY           SKY/WX    TMP DP  RH WIND       PRES   REMARKS
WINSLOW        CLOUDY    70  58  65 E7        30.15F
SAINT JOHNS    LGT RAIN  63  60  90 E5        30.20S
WINDOW ROCK    CLOUDY    63  51  65 S8        30.28
SHOW LOW       CLOUDY    57  57 100 NE3       30.25F
$$

AZZ023-170600-
GREATER PHOENIX AREA

CITY           SKY/WX    TMP DP  RH WIND       PRES   REMARKS
PHOENIX        CLOUDY    85  65  51 NE12      29.83S
BUCKEYE          N/A     81  68  65 NE3       29.85R
LUKE AFB       CLOUDY    83  66  54 N6        29.84S
DEER VALLEY    CLOUDY    82  62  50 NE6       29.86S
SCOTTSDALE     CLOUDY    83  64  52 N6        29.88S
MESA-GATEWAY   CLOUDY    82  68  61 CALM      29.87S
$$

AZZ027-028-170600-
SOUTHWEST MARICOPA COUNTY AND PINAL COUNTY

CITY           SKY/WX    TMP DP  RH WIND       PRES   REMARKS
CASA GRANDE    CLOUDY    82  64  54 E9        29.86S
GILA BEND      MOCLDY    81  70  69 E2        29.83S
$$

AZZ503-504-507>509-170600-
SOUTHEAST ARIZONA

CITY           SKY/WX    TMP DP  RH WIND       PRES   REMARKS
TUCSON         CLOUDY    77  68  73 NE6       29.95S
DAVIS-MONTHAN  CLOUDY    75  68  78 NE9       29.93F
NOGALES        LGT RAIN  73  62  68 SE8       29.98F
SIERRA VISTA   CLOUDY    66  66 100 E5        30.08F
DOUGLAS        CLOUDY    70  64  81 CALM      30.05S
SAFFORD        CLOUDY    71  66  84 E9        30.03S
$$

AZZ020-021-025-026-031-170600-
SOUTHWEST ARIZONA

CITY           SKY/WX    TMP DP  RH WIND       PRES   REMARKS
YUMA           CLOUDY    91  62  37 E12       29.76S
$$

CAZ031-033-041-043-047-048-061-170600-
SOUTHERN CALIFORNIA

CITY           SKY/WX    TMP DP  RH WIND       PRES   REMARKS
DOWNTOWN L.A.  CLEAR     81  60  48 CALM      29.72R
L.A. AIRPORT   PTCLDY    78  58  49 SE6       29.73R
SAN DIEGO      PTCLDY    82  67  60 NW7       29.74R
BURBANK        CLEAR     89  55  31 SE5       29.75R
ONTARIO        PTCLDY    89  59  36 CALM      29.77S
RIVERSIDE      CLEAR     88  59  37 S3        29.77S
PALM SPRINGS   PTCLDY    93  66  40 E13       29.80R
EL CENTRO NAS  PTCLDY    90  64  42 CALM      29.76R
IMPERIAL       MOCLDY    91  63  39 CALM      29.75R
BLYTHE         MOCLDY    83  71  67 CALM      29.80S
NEEDLES        MOCLDY    85  69  58 SW3       29.83F
$$

NVZ020-UTZ003-170600-
SOUTHERN NEVADA-UTAH

CITY           SKY/WX    TMP DP  RH WIND       PRES   REMARKS
LAS VEGAS      MOCLDY    86  54  33 S13       29.88R
SALT LAKE CITY CLEAR     75  43  31 SE10      29.96F
$$

NMZ009-TXZ055-170600-
NEW MEXICO-WEST TEXAS

CITY           SKY/WX    TMP DP  RH WIND       PRES   REMARKS
ALBUQUERQUE    CLOUDY    63  55  75 CALM      30.24S
EL PASO        CLOUDY    70  64  81 N14       30.11S
$$


........................KEY........................
SKY/WX - SKY CONDITION/WEATHER
TMP    - TEMPERATURE IN FAHRENHEIT
DP     - DEW POINT IN FAHRENHEIT
RH     - RELATIVE HUMIDITY IN PERCENT
WIND   - DIRECTION AND SPEED IN MILES PER HOUR (MPH)
VRB    - VARIABLE WIND DIRECTION
PRES   - MEAN SEA LEVEL PRESSURE IN INCHES OF MERCURY
         F - FALLING PRESSURE   R - RISING PRESSURE
         S - STEADY PRESSURE
VSB    - VISIBILITY IN MILES
HX     - HEAT INDEX IN FAHRENHEIT
WCI    - WIND CHILL INDEX IN FAHRENHEIT
TC     - TEMPERATURE IN CELSIUS WHICH IS ALSO KNOWN AS
         TEMPERATURE IN CENTIGRADE
AFB    - AIR FORCE BASE
         LUKE AFB IS LUKE AIR FORCE BASE
         DAVIS-MONTHAN IS DAVIS-MONTHAN AIR FORCE BASE
NAS    - NAVAL AIR STATION
         EL CENTRO NAS IS EL CENTRO NAVAL AIR STATION
N/A    - NOT AVAILABLE



USA.gov is the U.S. government's official web portal to all federal, state and local government web resources and services.